K6NC Weather Reports


Display with metric or nautical units.
time (UTC)temp
F
wind
direction
speed
MPH
gust
MPH
rain 1hr
in
rain 24hr
in
rain mn
in
humidity
%
barometer
mb
20260505004010 57 92 3.0 8.0 0.01 0.03 0.03 84 1014.5
20260505003510 57 72 4.0 8.0 0.00 0.02 0.02 84 1014.5
20260505003028 57 68 4.0 8.0 0.00 0.02 0.02 84 1014.6
20260505002511 57 69 4.0 8.0 0.00 0.02 0.02 84 1014.5
20260505002018 57 81 4.0 7.0 0.00 0.02 0.02 85 1014.6
20260505001528 57 57 4.0 9.0 0.00 0.02 0.02 85 1014.5
20260505001015 57 63 4.0 9.0 0.00 0.02 0.02 85 1014.5
20260505000514 58 80 5.0 9.0 0.00 0.02 0.02 84 1014.6
20260505000037 58 89 4.0 9.0 0.00 0.02 0.02 86 1014.5
20260504235509 58 88 3.0 7.0 0.00 0.02 0.02 86 1014.4
20260504235011 58 81 2.0 6.0 0.00 0.02 0.02 87 1014.5
20260504234530 58 65 3.0 7.0 0.00 0.02 0.02 87 1014.4
20260504234009 58 84 3.0 7.0 0.00 0.02 0.02 86 1014.5
20260504233513 58 71 3.0 7.0 0.00 0.02 0.02 86 1014.5
20260504233028 58 82 3.0 7.0 0.00 0.02 0.02 85 1014.6
20260504232513 58 97 2.0 8.0 0.00 0.02 0.02 83 1014.5
20260504232012 58 80 4.0 8.0 0.00 0.02 0.02 84 1014.5
20260504231528 59 57 3.0 7.0 0.00 0.02 0.02 85 1014.5
20260504231012 59 76 3.0 7.0 0.00 0.02 0.02 84 1014.6
20260504230512 59 66 2.0 7.0 0.00 0.02 0.02 84 1014.6
20260504230030 59 74 2.0 7.0 0.00 0.02 0.02 83 1014.6
20260504225513 58 93 3.0 7.0 0.00 0.02 0.02 83 1014.6
20260504225010 59 71 2.0 7.0 0.00 0.02 0.02 84 1014.6
20260504224533 59 98 2.0 7.0 0.00 0.02 0.02 84 1014.7
20260504224013 59 87 2.0 10.0 0.00 0.02 0.02 84 1014.9
20260504223516 59 101 4.0 10.0 0.00 0.02 0.02 84 1014.9
20260504223027 59 74 5.0 10.0 0.00 0.02 0.02 84 1014.9
20260504222513 59 84 3.0 7.0 0.00 0.02 0.02 83 1015.0
20260504222012 60 0 1.0 6.0 0.00 0.02 0.02 82 1014.9
20260504221530 60 0 0.0 6.0 0.00 0.02 0.02 80 1014.9
20260504221017 60 103 3.0 6.0 0.00 0.02 0.02 79 1014.9
20260504220514 60 70 0.0 3.0 0.00 0.02 0.02 79 1014.9
20260504220028 59 0 0.0 6.0 0.00 0.02 0.02 80 1014.9
20260504215510 59 0 0.0 6.0 0.00 0.02 0.02 80 1014.9
20260504215012 59 88 2.0 4.0 0.00 0.02 0.02 79 1015.0
20260504214530 59 0 0.0 4.0 0.00 0.02 0.02 79 1015.1
20260504214015 59 0 0.0 4.0 0.00 0.02 0.02 78 1015.1
20260504213514 59 0 0.0 3.0 0.00 0.02 0.02 78 1015.1
20260504213034 59 82 1.0 3.0 0.00 0.02 0.02 78 1015.1
20260504212514 59 96 0.0 3.0 0.00 0.02 0.02 79 1015.2
20260504212014 59 93 0.0 2.0 0.00 0.02 0.02 79 1015.1
20260504211528 59 0 0.0 2.0 0.00 0.02 0.02 78 1015.2
20260504211014 59 0 0.0 2.0 0.00 0.02 0.02 79 1015.2
20260504210515 59 0 0.0 7.0 0.00 0.02 0.02 80 1015.1
20260504210028 59 0 1.0 7.0 0.00 0.02 0.02 80 1015.1
20260504205514 59 246 2.0 5.0 0.00 0.02 0.02 79 1015.1
20260504205012 59 161 3.0 6.0 0.00 0.02 0.02 79 1015.1
20260504204528 59 168 2.0 6.0 0.00 0.02 0.02 83 1015.0
20260504204014 59 215 2.0 6.0 0.00 0.02 0.02 82 1015.0
20260504203513 59 0 3.0 6.0 0.00 0.02 0.02 83 1015.1
20260504203028 59 0 1.0 6.0 0.00 0.02 0.02 84 1015.1
20260504202513 58 0 1.0 6.0 0.00 0.02 0.02 83 1015.0
20260504202015 58 0 0.0 5.0 0.00 0.02 0.02 84 1015.1
20260504201531 58 0 0.0 5.0 0.00 0.02 0.02 84 1015.0
20260504201014 58 0 0.0 5.0 0.00 0.02 0.02 85 1015.1
20260504200515 58 171 0.0 3.0 0.00 0.02 0.02 85 1015.1
20260504200030 58 0 0.0 3.0 0.00 0.02 0.02 84 1015.2
20260504195512 58 178 1.0 4.0 0.00 0.02 0.02 83 1015.1
20260504195013 58 0 0.0 8.0 0.00 0.02 0.02 82 1015.2
20260504194531 58 179 3.0 10.0 0.00 0.02 0.02 83 1015.2
20260504194014 58 188 6.0 10.0 0.00 0.02 0.02 82 1015.2
20260504193515 59 219 5.0 7.0 0.00 0.02 0.02 81 1015.0
20260504193028 59 207 3.0 6.0 0.00 0.02 0.02 79 1015.1
20260504192514 59 230 3.0 5.0 0.00 0.02 0.02 78 1015.1
20260504192017 59 213 1.0 5.0 0.00 0.02 0.02 78 1015.1
20260504191530 59 0 1.0 5.0 0.00 0.02 0.02 77 1015.2
20260504191016 59 188 2.0 5.0 0.00 0.02 0.02 76 1015.2
20260504190514 59 198 1.0 5.0 0.00 0.02 0.02 76 1015.3
20260504190030 59 169 1.0 5.0 0.00 0.02 0.02 76 1015.2
20260504185513 59 203 1.0 5.0 0.00 0.02 0.02 78 1015.2
20260504185013 59 0 0.0 6.0 0.00 0.02 0.02 77 1015.3
20260504184531 59 252 2.0 6.0 0.00 0.02 0.02 77 1015.4
20260504184014 59 231 1.0 7.0 0.00 0.02 0.02 79 1015.3
20260504183513 59 188 4.0 7.0 0.00 0.02 0.02 78 1015.3
20260504183029 59 206 3.0 8.0 0.00 0.02 0.02 78 1015.4
20260504182513 59 192 5.0 9.0 0.00 0.02 0.02 78 1015.4
20260504182013 59 179 3.0 9.0 0.00 0.02 0.02 79 1015.4
20260504181530 59 197 5.0 9.0 0.00 0.02 0.02 79 1015.4
20260504181016 59 194 4.0 9.0 0.00 0.02 0.02 80 1015.4
20260504180513 58 207 5.0 9.0 0.00 0.02 0.02 81 1015.3
20260504180030 58 217 4.0 8.0 0.00 0.02 0.02 80 1015.3
20260504175513 58 244 5.0 8.0 0.00 0.02 0.02 80 1015.2
20260504175017 58 194 4.0 7.0 0.00 0.02 0.02 80 1015.3
20260504174527 58 174 4.0 7.0 0.00 0.02 0.02 80 1015.1
20260504174014 58 195 4.0 6.0 0.00 0.02 0.02 79 1015.1
20260504173512 57 235 3.0 6.0 0.00 0.02 0.02 81 1015.0
20260504173028 57 245 3.0 7.0 0.00 0.02 0.02 81 1015.0
20260504172512 57 227 4.0 7.0 0.00 0.02 0.02 80 1015.0
20260504172014 57 212 3.0 8.0 0.00 0.02 0.02 79 1015.0
20260504171543 57 221 5.0 8.0 0.00 0.02 0.02 80 1015.0
20260504171011 57 217 6.0 8.0 0.00 0.02 0.02 81 1015.0
20260504170512 57 228 4.0 7.0 0.00 0.02 0.02 80 1015.0
20260504151013 56 164 5.0 9.0 0.02 0.02 0.02 90 1014.4
20260504150512 55 184 2.0 7.0 0.02 0.02 0.02 90 1014.3
20260504141010 53 0 0.0 6.0 0.00 0.00 0.00 89 1014.2
20260504140512 53 0 1.0 6.0 0.00 0.00 0.00 88 1014.2
20260504130512 53 0 0.0 3.0 0.00 0.00 0.00 89 1014.2
20260504110511 53 0 0.0 3.0 0.00 0.00 0.00 86 1013.9
20260504100514 53 246 3.0 5.0 0.00 0.00 0.00 86 1013.7
20260504090106 54 176 1.0 4.0 0.00 0.00 0.00 85 1014.0
20260504081532 54 213 2.0 5.0 0.00 0.00 0.00 84 1013.8
20260504081015 54 0 1.0 7.0 0.00 0.00 0.00 84 1013.8
20260504080511 54 214 4.0 7.0 0.00 0.00 0.00 84 1013.8
20260504050514 56 242 6.0 10.0 0.00 0.00 0.00 79 1013.3
20260504045513 56 233 5.0 9.0 0.00 0.00 0.00 79 1013.3
20260504045013 56 269 6.0 9.0 0.00 0.00 0.00 78 1013.2
20260504044531 56 227 4.0 8.0 0.00 0.00 0.00 78 1013.0
20260504044010 57 257 3.0 9.0 0.00 0.00 0.00 77 1013.0
20260504043511 57 228 3.0 10.0 0.00 0.00 0.00 77 1013.0
20260504043044 57 253 6.0 10.0 0.00 0.00 0.00 76 1013.0
20260504042510 57 246 5.0 11.0 0.00 0.00 0.00 76 1013.0
20260504042011 58 251 6.0 11.0 0.00 0.00 0.00 76 1013.0
20260504041536 58 262 4.0 10.0 0.00 0.00 0.00 76 1012.9
20260504041013 58 254 6.0 10.0 0.00 0.00 0.00 75 1013.1
20260504040510 58 246 5.0 9.0 0.00 0.00 0.00 75 1012.9
20260504040030 58 241 5.0 10.0 0.00 0.00 0.00 74 1012.8
20260504035514 58 248 6.0 12.0 0.00 0.00 0.00 74 1012.9
20260504035009 58 259 7.0 12.0 0.00 0.00 0.00 74 1012.6
20260504034530 58 269 6.0 8.0 0.00 0.00 0.00 75 1012.7
20260504034018 59 230 4.0 8.0 0.00 0.00 0.00 74 1012.7
20260504033513 59 235 5.0 11.0 0.00 0.00 0.00 73 1012.6
20260504033031 59 267 5.0 11.0 0.00 0.00 0.00 72 1012.5
20260504032513 59 286 7.0 12.0 0.00 0.00 0.00 72 1012.3
20260504032013 59 288 6.0 12.0 0.00 0.00 0.00 72 1012.2
20260504031530 59 265 5.0 9.0 0.00 0.00 0.00 71 1012.2
20260504031013 60 276 5.0 10.0 0.00 0.00 0.00 70 1012.1
20260504030514 60 271 5.0 12.0 0.00 0.00 0.00 70 1012.1
20260504030033 60 283 6.0 12.0 0.00 0.00 0.00 70 1012.1
20260504025514 60 248 8.0 12.0 0.00 0.00 0.00 69 1012.1
20260504025011 61 273 7.0 12.0 0.00 0.00 0.00 68 1012.0
20260504024529 61 271 8.0 13.0 0.00 0.00 0.00 66 1011.9
20260504024012 61 279 9.0 13.0 0.00 0.00 0.00 66 1011.7
20260504023513 62 268 8.0 14.0 0.00 0.00 0.00 65 1011.8
20260504023031 62 264 9.0 15.0 0.00 0.00 0.00 64 1011.8
20260504022514 62 288 8.0 15.0 0.00 0.00 0.00 64 1011.7
20260504022011 62 270 9.0 15.0 0.00 0.00 0.00 63 1011.7
20260504021527 63 268 11.0 15.0 0.00 0.00 0.00 63 1011.6
20260504021012 63 252 8.0 15.0 0.00 0.00 0.00 63 1011.6
20260504020512 63 247 10.0 16.0 0.00 0.00 0.00 63 1011.5
20260504020031 63 250 9.0 16.0 0.00 0.00 0.00 62 1011.4
20260504015511 64 254 11.0 16.0 0.00 0.00 0.00 62 1011.3
20260504015009 64 254 9.0 16.0 0.00 0.00 0.00 64 1011.3
20260504014538 64 253 10.0 16.0 0.00 0.00 0.00 63 1011.3
20260504014010 64 251 9.0 15.0 0.00 0.00 0.00 63 1011.3
20260504013513 65 251 10.0 15.0 0.00 0.00 0.00 63 1011.3
20260504013029 65 261 10.0 15.0 0.00 0.00 0.00 61 1011.2
20260504012513 65 248 9.0 15.0 0.00 0.00 0.00 62 1011.2
20260504012013 65 281 9.0 14.0 0.00 0.00 0.00 63 1011.3
20260504011529 65 246 8.0 12.0 0.00 0.00 0.00 63 1011.2
20260504011012 65 270 9.0 12.0 0.00 0.00 0.00 62 1011.2
20260504010513 65 273 9.0 12.0 0.00 0.00 0.00 62 1011.2
20260504010035 65 249 7.0 14.0 0.00 0.00 0.00 62 1011.2
20260504005514 65 240 8.0 16.0 0.00 0.00 0.00 62 1011.1
20260504005016 66 259 11.0 16.0 0.00 0.00 0.00 60 1011.2
20260504004532 67 244 9.0 14.0 0.00 0.00 0.00 62 1011.1